Погода в Пуксибе

Россия / Пермский край     59°46′36″N   55°01′03″E
темп.,
°C
ветер,
м/с
пор.,
м/с
влажн.,
%
обл.,
%
осадки,
мм/ч
давл.,
гПа
погр.,
м
5 марта, пт
пт523:00−6вюв3796100 1.6 986410
02:00−7всв2597100 0.8 986178
05:00−8св2297100 1.2 98854
08:00−9ссз249699 0.5 990184
11:00−8сз3695100 1.3 994467
14:00−8зсз4794100 0.5 995525
17:00−9зсз488693 0.8 998704
20:00−14з269596 0.0 999117
6 марта, сб
сб623:00−17з239789 0.0 100253
02:00−19зюз349863 0.0 100285
05:00−21зюз379848 0.0 1004153
08:00−19з399699 0.1 1005296
11:00−17з369699 0.2 1006305
14:00−13з3590100 0.1 1007648
17:00−13з3591100 0.2 1008686
20:00−15зюз2396100 0.1 100893
7 марта, вс
вс723:00−17зюз239897 0.1 100951
02:00−21зюз2210077 0.0 100920
05:00−21юз229982 0.1 101021
08:00−22юз129980 0.0 101020
11:00−17юз139485 0.1 1010289
14:00−14юз2385100 0.1 1009702
17:00−13ююз1286100 0.1 1008599
20:00−18ююв229695 0.0 100820
8 марта, пн
пн823:00−20ююв239647 0.0 100820
02:00−21ююв2310084 0.0 100724
05:00−22юв239982 0.0 100650
08:00−20вюв379997 0.0 1005190
11:00−16вюв379499 0.0 1003307
14:00−13в4793100 0.1 1001421
17:00−11вюв3793100 0.6 1000732
20:00−12в2696100 0.5 999248
9 марта, вт
вт923:00−13всв2696100 0.8 999184
02:00−14всв3795100 0.2 998241
05:00−14св3696100 0.4 999237
08:00−15ссв3796100 0.3 999295
11:00−14с369499 0.3 1000384
14:00−13с3592100 0.1 1002493
17:00−13с4792100 0.1 1005527
20:00−16ссз3896100 0.1 1008374